Time,TemperatureF,DewpointF,PressureIn,WindDirection,WindDirectionDegrees,WindSpeedMPH,WindSpeedGustMPH,Humidity,HourlyPrecipIn,Conditions,Clouds,dailyrainin,SoftwareType,DateUTC
2013-08-25 00:00:00,63.7,52.5,29.96,WNW,292,0.0,0.0,67,0.00,CLR,,0.00,WeatherDisplay:10.37,2013-08-24 22:00:00,
2013-08-25 00:05:00,63.3,52.3,29.97,WNW,293,0.0,1.3,67,0.00,,,0.00,WUHU21636XXSP,2013-08-24 22:05:00,
2013-08-25 00:10:00,63.1,52.1,29.97,WNW,293,2.9,2.9,67,0.00,,,0.00,WUHU21636XXSP,2013-08-24 22:10:00,
2013-08-25 00:15:00,63.1,52.1,29.97,WNW,293,0.0,2.9,67,0.00,,,0.00,WUHU21636XXSP,2013-08-24 22:15:00,
2013-08-25 00:20:00,63.1,52.1,29.97,WNW,293,0.0,2.9,67,0.00,,,0.00,WUHU21636XXSP,2013-08-24 22:20:00,
2013-08-25 00:25:00,63.0,52.4,29.97,WNW,293,0.0,0.0,68,0.00,,,0.00,WUHU21636XXSP,2013-08-24 22:25:00,
2013-08-25 00:30:00,62.8,52.2,29.97,WNW,293,0.4,0.4,68,0.00,,,0.00,WUHU21636XXSP,2013-08-24 22:30:00,
2013-08-25 00:35:00,62.8,52.2,29.97,WNW,293,0.0,0.4,68,0.00,,,0.00,WUHU21636XXSP,2013-08-24 22:35:00,
2013-08-25 00:40:00,62.8,52.2,29.96,WNW,293,0.7,0.7,68,0.00,,,0.00,WUHU21636XXSP,2013-08-24 22:40:00,
2013-08-25 00:45:00,62.8,52.6,29.96,WNW,293,0.7,0.7,69,0.00,,,0.00,WUHU21636XXSP,2013-08-24 22:45:00,
2013-08-25 00:50:00,62.6,52.4,29.96,WNW,293,0.0,0.7,69,0.00,,,0.00,WUHU21636XXSP,2013-08-24 22:50:00,
2013-08-25 00:55:00,62.4,52.2,29.96,WNW,293,0.0,0.7,69,0.00,,,0.00,WUHU21636XXSP,2013-08-24 22:55:00,
2013-08-25 01:00:00,62.4,52.2,29.96,WNW,293,0.0,0.0,69,0.00,,,0.00,WUHU21636XXSP,2013-08-24 23:00:00,
2013-08-25 01:05:00,62.4,52.2,29.96,WNW,293,0.0,0.0,69,0.00,,,0.00,WUHU21636XXSP,2013-08-24 23:05:00,
2013-08-25 01:10:00,62.4,52.2,29.96,WNW,293,0.0,0.0,69,0.00,,,0.00,WUHU21636XXSP,2013-08-24 23:10:00,
2013-08-25 01:15:00,62.4,52.2,29.96,WNW,293,0.0,0.0,69,0.00,,,0.00,WUHU21636XXSP,2013-08-24 23:15:00,
2013-08-25 01:20:00,62.4,52.2,29.96,WNW,293,0.0,0.0,69,0.00,,,0.00,WUHU21636XXSP,2013-08-24 23:20:00,
2013-08-25 01:25:00,62.4,52.6,29.96,WNW,293,0.0,0.0,70,0.00,,,0.00,WUHU21636XXSP,2013-08-24 23:25:00,
2013-08-25 01:30:00,62.2,52.4,29.96,WNW,293,0.0,0.0,70,0.00,,,0.00,WUHU21636XXSP,2013-08-24 23:30:00,
2013-08-25 01:35:00,62.2,52.4,29.96,WNW,293,1.3,1.3,70,0.00,,,0.00,WUHU21636XXSP,2013-08-24 23:35:00,
2013-08-25 01:40:00,62.2,52.4,29.96,WNW,293,0.0,1.3,70,0.00,,,0.00,WUHU21636XXSP,2013-08-24 23:40:00,
2013-08-25 01:45:00,62.2,52.4,29.96,WNW,293,0.0,1.3,70,0.00,,,0.00,WUHU21636XXSP,2013-08-24 23:45:00,
2013-08-25 01:50:00,62.2,52.4,29.96,WNW,293,0.0,0.0,70,0.00,,,0.00,WUHU21636XXSP,2013-08-24 23:50:00,
2013-08-25 01:55:00,62.2,52.8,29.96,WNW,293,0.0,0.0,71,0.00,,,0.00,WUHU21636XXSP,2013-08-24 23:55:00,
2013-08-25 02:00:00,62.2,52.8,29.96,WNW,293,0.0,0.0,71,0.00,,,0.00,WUHU21636XXSP,2013-08-25 00:00:00,
2013-08-25 02:05:00,62.2,52.8,29.96,WNW,293,0.0,0.0,71,0.00,,,0.00,WUHU21636XXSP,2013-08-25 00:05:00,
2013-08-25 02:10:00,62.2,52.8,29.96,WNW,293,0.0,0.0,71,0.00,,,0.00,WUHU21636XXSP,2013-08-25 00:10:00,
2013-08-25 02:15:00,62.1,52.7,29.96,WNW,293,0.0,0.0,71,0.00,,,0.00,WUHU21636XXSP,2013-08-25 00:15:00,
2013-08-25 02:20:00,61.9,52.5,29.96,WNW,293,0.0,0.0,71,0.00,,,0.00,WUHU21636XXSP,2013-08-25 00:20:00,
2013-08-25 02:25:00,61.9,52.5,29.96,WNW,293,0.0,0.0,71,0.00,,,0.00,WUHU21636XXSP,2013-08-25 00:25:00,
2013-08-25 02:30:00,61.5,52.1,29.96,WNW,293,1.6,1.6,71,0.00,,,0.00,WUHU21636XXSP,2013-08-25 00:30:00,
2013-08-25 02:35:00,61.3,52.0,29.96,WNW,293,0.4,1.6,71,0.00,,,0.00,WUHU21636XXSP,2013-08-25 00:35:00,
2013-08-25 02:40:00,61.3,52.0,29.96,WNW,293,0.0,1.6,71,0.00,,,0.00,WUHU21636XXSP,2013-08-25 00:40:00,
2013-08-25 02:45:00,61.2,52.2,29.96,WNW,293,0.0,0.4,72,0.00,,,0.00,WUHU21636XXSP,2013-08-25 00:45:00,
2013-08-25 02:50:00,61.0,52.0,29.96,WNW,293,0.0,0.0,72,0.00,,,0.00,WUHU21636XXSP,2013-08-25 00:50:00,
2013-08-25 02:55:00,61.0,52.0,29.96,WNW,293,0.0,0.0,72,0.00,,,0.00,WUHU21636XXSP,2013-08-25 00:55:00,
2013-08-25 03:00:00,60.6,52.0,29.96,WNW,293,0.0,0.0,73,0.00,,,0.00,WUHU21636XXSP,2013-08-25 01:00:00,
2013-08-25 03:05:00,60.6,52.0,29.96,WNW,293,0.0,0.0,73,0.00,,,0.00,WUHU21636XXSP,2013-08-25 01:05:00,
2013-08-25 03:10:00,60.4,51.8,29.96,WNW,293,0.4,0.4,73,0.00,,,0.00,WUHU21636XXSP,2013-08-25 01:10:00,
2013-08-25 03:15:00,60.4,51.8,29.95,WNW,293,0.0,0.4,73,0.00,,,0.00,WUHU21636XXSP,2013-08-25 01:15:00,
2013-08-25 03:20:00,60.4,51.8,29.95,WNW,293,0.0,0.4,73,0.00,,,0.00,WUHU21636XXSP,2013-08-25 01:20:00,
2013-08-25 03:25:00,60.1,51.5,29.95,WNW,293,0.0,0.0,73,0.00,,,0.00,WUHU21636XXSP,2013-08-25 01:25:00,
2013-08-25 03:30:00,60.1,51.9,29.95,WNW,293,0.0,0.0,74,0.00,,,0.00,WUHU21636XXSP,2013-08-25 01:30:00,
2013-08-25 03:35:00,59.9,51.7,29.95,WNW,293,0.0,0.0,74,0.00,,,0.00,WUHU21636XXSP,2013-08-25 01:35:00,
2013-08-25 03:40:00,59.9,52.1,29.95,WNW,293,0.0,0.0,75,0.00,,,0.00,WUHU21636XXSP,2013-08-25 01:40:00,
2013-08-25 03:45:00,59.7,51.9,29.94,WNW,293,0.0,0.0,75,0.00,,,0.00,WUHU21636XXSP,2013-08-25 01:45:00,
2013-08-25 03:50:00,59.7,51.9,29.94,WNW,293,0.0,0.0,75,0.00,,,0.00,WUHU21636XXSP,2013-08-25 01:50:00,
2013-08-25 03:55:00,59.7,51.9,29.94,SE,135,0.0,0.0,75,0.00,,,0.00,WUHU21636XXSP,2013-08-25 01:55:00,
2013-08-25 04:00:00,59.9,52.1,29.94,SE,135,0.0,0.0,75,0.00,,,0.00,WUHU21636XXSP,2013-08-25 02:00:00,
2013-08-25 04:05:00,59.9,52.1,29.94,SE,135,0.0,0.0,75,0.00,,,0.00,WUHU21636XXSP,2013-08-25 02:05:00,
2013-08-25 04:10:00,59.9,52.1,29.94,SE,135,0.0,0.0,75,0.00,,,0.00,WUHU21636XXSP,2013-08-25 02:10:00,
2013-08-25 04:15:00,60.1,52.3,29.94,West,270,0.0,0.0,75,0.00,,,0.00,WUHU21636XXSP,2013-08-25 02:15:00,
2013-08-25 04:20:00,60.1,51.9,29.94,ESE,113,0.0,0.0,74,0.00,,,0.00,WUHU21636XXSP,2013-08-25 02:20:00,
2013-08-25 04:25:00,60.3,52.1,29.94,SE,135,0.0,0.0,74,0.00,,,0.00,WUHU21636XXSP,2013-08-25 02:25:00,
2013-08-25 04:30:00,60.4,52.2,29.94,SE,135,0.0,0.0,74,0.00,,,0.00,WUHU21636XXSP,2013-08-25 02:30:00,
2013-08-25 04:35:00,60.4,52.2,29.94,SE,135,0.0,0.0,74,0.00,,,0.00,WUHU21636XXSP,2013-08-25 02:35:00,
2013-08-25 04:40:00,60.4,52.2,29.93,SE,135,0.0,0.0,74,0.00,,,0.00,WUHU21636XXSP,2013-08-25 02:40:00,
2013-08-25 04:45:00,60.4,52.2,29.93,SE,135,0.0,0.0,74,0.00,,,0.00,WUHU21636XXSP,2013-08-25 02:45:00,
2013-08-25 04:50:00,60.4,51.8,29.93,WNW,293,0.0,0.0,73,0.00,,,0.00,WUHU21636XXSP,2013-08-25 02:50:00,
2013-08-25 04:55:00,60.6,52.0,29.93,WNW,293,0.0,0.0,73,0.00,,,0.00,WUHU21636XXSP,2013-08-25 02:55:00,
2013-08-25 05:00:00,60.6,52.0,29.93,WNW,293,0.0,0.0,73,0.00,,,0.00,WUHU21636XXSP,2013-08-25 03:00:00,
2013-08-25 05:05:00,60.6,52.0,29.93,WNW,293,0.0,0.0,73,0.00,,,0.00,WUHU21636XXSP,2013-08-25 03:05:00,
2013-08-25 05:10:00,60.6,52.4,29.93,WNW,293,0.0,0.0,74,0.00,,,0.00,WUHU21636XXSP,2013-08-25 03:10:00,
2013-08-25 05:15:00,60.8,52.6,29.93,WNW,293,0.0,0.0,74,0.00,,,0.00,WUHU21636XXSP,2013-08-25 03:15:00,
2013-08-25 05:20:00,60.8,52.2,29.93,WNW,293,0.0,0.0,73,0.00,,,0.00,WUHU21636XXSP,2013-08-25 03:20:00,
2013-08-25 05:25:00,60.8,52.6,29.93,WNW,293,0.0,0.0,74,0.00,,,0.00,WUHU21636XXSP,2013-08-25 03:25:00,
2013-08-25 05:30:00,60.8,52.6,29.93,WNW,293,0.0,0.0,74,0.00,,,0.00,WUHU21636XXSP,2013-08-25 03:30:00,
2013-08-25 05:35:00,61.0,52.8,29.93,WNW,293,0.0,0.0,74,0.00,,,0.00,WUHU21636XXSP,2013-08-25 03:35:00,
2013-08-25 05:40:00,60.8,52.6,29.93,WNW,293,0.0,0.0,74,0.00,,,0.00,WUHU21636XXSP,2013-08-25 03:40:00,
2013-08-25 05:45:00,60.6,52.4,29.92,NW,315,0.0,0.0,74,0.00,,,0.00,WUHU21636XXSP,2013-08-25 03:45:00,
2013-08-25 05:50:00,60.6,52.4,29.93,NW,315,0.0,0.0,74,0.00,,,0.00,WUHU21636XXSP,2013-08-25 03:50:00,
2013-08-25 05:55:00,60.4,52.2,29.93,NW,315,0.0,0.0,74,0.00,,,0.00,WUHU21636XXSP,2013-08-25 03:55:00,
2013-08-25 06:00:00,60.4,52.2,29.93,NW,315,0.0,0.0,74,0.00,,,0.00,WUHU21636XXSP,2013-08-25 04:00:00,
2013-08-25 06:05:00,60.4,52.5,29.93,NW,315,0.0,0.0,75,0.00,,,0.00,WUHU21636XXSP,2013-08-25 04:05:00,
2013-08-25 06:10:00,60.4,52.2,29.93,NW,315,0.0,0.0,74,0.00,,,0.00,WUHU21636XXSP,2013-08-25 04:10:00,
2013-08-25 06:15:00,60.4,52.2,29.93,NW,315,0.0,0.0,74,0.00,,,0.00,WUHU21636XXSP,2013-08-25 04:15:00,
2013-08-25 06:20:00,60.4,52.2,29.93,NW,315,0.0,0.0,74,0.00,,,0.00,WUHU21636XXSP,2013-08-25 04:20:00,
2013-08-25 06:25:00,60.4,52.5,29.93,NW,315,0.0,0.0,75,0.00,,,0.00,WUHU21636XXSP,2013-08-25 04:25:00,
2013-08-25 06:30:00,60.4,52.5,29.93,NW,315,0.0,0.0,75,0.00,,,0.00,WUHU21636XXSP,2013-08-25 04:30:00,
2013-08-25 06:35:00,60.4,52.5,29.93,NW,315,0.0,0.0,75,0.00,,,0.00,WUHU21636XXSP,2013-08-25 04:35:00,
2013-08-25 06:40:00,60.4,52.5,29.93,NW,315,0.0,0.0,75,0.00,,,0.00,WUHU21636XXSP,2013-08-25 04:40:00,
2013-08-25 06:45:00,60.4,52.9,29.93,NW,315,0.0,0.0,76,0.00,,,0.00,WUHU21636XXSP,2013-08-25 04:45:00,
2013-08-25 06:50:00,60.4,52.9,29.93,NW,315,0.0,0.0,76,0.00,,,0.00,WUHU21636XXSP,2013-08-25 04:50:00,
2013-08-25 06:55:00,60.4,52.9,29.93,NW,315,0.0,0.0,76,0.00,,,0.00,WUHU21636XXSP,2013-08-25 04:55:00,
2013-08-25 07:00:00,60.4,52.9,29.93,NW,315,0.0,0.0,76,0.00,,,0.00,WUHU21636XXSP,2013-08-25 05:00:00,
2013-08-25 07:05:00,60.4,52.9,29.93,NW,315,0.0,0.0,76,0.00,,,0.00,WUHU21636XXSP,2013-08-25 05:05:00,
2013-08-25 07:10:00,60.4,53.2,29.93,NW,315,0.0,0.0,77,0.00,,,0.00,WUHU21636XXSP,2013-08-25 05:10:00,
2013-08-25 07:15:00,60.6,53.4,29.92,NW,315,0.0,0.0,77,0.00,,,0.00,WUHU21636XXSP,2013-08-25 05:15:00,
2013-08-25 07:20:00,60.6,53.4,29.92,NW,315,0.0,0.0,77,0.00,,,0.00,WUHU21636XXSP,2013-08-25 05:20:00,
2013-08-25 07:25:00,60.8,53.6,29.92,NW,315,0.0,0.0,77,0.00,,,0.00,WUHU21636XXSP,2013-08-25 05:25:00,
2013-08-25 07:30:00,61.0,53.8,29.93,NW,315,0.0,0.0,77,0.00,,,0.00,WUHU21636XXSP,2013-08-25 05:30:00,
2013-08-25 07:35:00,61.2,53.7,29.92,NW,315,0.0,0.0,76,0.00,,,0.00,WUHU21636XXSP,2013-08-25 05:35:00,
2013-08-25 07:40:00,61.3,53.4,29.92,NW,315,0.0,0.0,75,0.00,,,0.00,WUHU21636XXSP,2013-08-25 05:40:00,
2013-08-25 07:45:00,61.3,53.1,29.92,NW,315,0.0,0.0,74,0.00,,,0.00,WUHU21636XXSP,2013-08-25 05:45:00,
2013-08-25 07:50:00,61.5,53.3,29.92,NW,315,0.0,0.0,74,0.00,,,0.00,WUHU21636XXSP,2013-08-25 05:50:00,
2013-08-25 07:55:00,61.7,53.1,29.93,NW,315,0.0,0.0,73,0.00,,,0.00,WUHU21636XXSP,2013-08-25 05:55:00,
2013-08-25 08:00:00,61.9,53.3,29.92,NW,315,0.0,0.0,73,0.00,,,0.00,WUHU21636XXSP,2013-08-25 06:00:00,
2013-08-25 08:05:00,61.9,52.9,29.93,SE,135,0.9,0.9,72,0.00,,,0.00,WUHU21636XXSP,2013-08-25 06:05:00,
2013-08-25 08:10:00,61.9,53.3,29.93,West,270,0.9,0.9,73,0.00,,,0.00,WUHU21636XXSP,2013-08-25 06:10:00,
2013-08-25 08:15:00,61.9,53.3,29.93,West,270,0.0,0.9,73,0.00,,,0.00,WUHU21636XXSP,2013-08-25 06:15:00,
2013-08-25 08:20:00,61.9,53.3,29.93,West,270,0.0,0.9,73,0.00,,,0.00,WUHU21636XXSP,2013-08-25 06:20:00,
2013-08-25 08:25:00,62.2,53.6,29.93,WNW,293,0.0,0.0,73,0.00,,,0.00,WUHU21636XXSP,2013-08-25 06:25:00,
2013-08-25 08:30:00,62.2,53.6,29.93,SSW,203,0.0,0.0,73,0.00,,,0.00,WUHU21636XXSP,2013-08-25 06:30:00,
2013-08-25 08:35:00,62.2,53.6,29.93,West,270,0.0,0.0,73,0.00,,,0.00,WUHU21636XXSP,2013-08-25 06:35:00,
2013-08-25 08:40:00,62.2,53.6,29.93,West,270,0.0,0.0,73,0.00,,,0.00,WUHU21636XXSP,2013-08-25 06:40:00,
2013-08-25 08:45:00,62.2,53.6,29.93,WNW,293,0.0,0.0,73,0.00,,,0.00,WUHU21636XXSP,2013-08-25 06:45:00,
2013-08-25 08:50:00,62.2,53.2,29.93,WNW,293,0.0,0.0,72,0.00,,,0.00,WUHU21636XXSP,2013-08-25 06:50:00,
2013-08-25 08:55:00,62.4,53.4,29.93,WNW,293,0.0,0.0,72,0.00,,,0.00,WUHU21636XXSP,2013-08-25 06:55:00,
2013-08-25 09:00:00,62.4,53.4,29.93,WNW,293,1.1,1.1,72,0.00,,,0.00,WUHU21636XXSP,2013-08-25 07:00:00,
2013-08-25 09:05:00,62.4,53.4,29.93,WNW,293,0.0,1.1,72,0.00,,,0.00,WUHU21636XXSP,2013-08-25 07:05:00,
2013-08-25 09:10:00,62.4,53.4,29.93,WNW,293,0.7,1.1,72,0.00,,,0.00,WUHU21636XXSP,2013-08-25 07:10:00,
2013-08-25 09:15:00,62.4,53.4,29.92,WNW,293,0.4,0.7,72,0.00,,,0.00,WUHU21636XXSP,2013-08-25 07:15:00,
2013-08-25 09:20:00,62.4,53.4,29.92,WNW,293,0.0,0.7,72,0.00,,,0.00,WUHU21636XXSP,2013-08-25 07:20:00,
2013-08-25 09:25:00,62.4,53.4,29.93,WNW,293,0.9,0.9,72,0.00,,,0.00,WUHU21636XXSP,2013-08-25 07:25:00,
2013-08-25 09:30:00,62.4,53.4,29.92,WNW,293,0.0,0.9,72,0.00,,,0.00,WUHU21636XXSP,2013-08-25 07:30:00,
2013-08-25 09:35:00,62.6,53.6,29.93,South,180,0.0,0.9,72,0.00,,,0.00,WUHU21636XXSP,2013-08-25 07:35:00,
2013-08-25 09:40:00,62.8,53.4,29.93,SSW,203,0.0,0.0,71,0.00,,,0.00,WUHU21636XXSP,2013-08-25 07:40:00,
2013-08-25 09:45:00,62.8,53.4,29.93,ESE,113,0.0,0.0,71,0.00,,,0.00,WUHU21636XXSP,2013-08-25 07:45:00,
2013-08-25 09:50:00,63.0,53.6,29.93,WNW,293,0.0,0.0,71,0.00,,,0.00,WUHU21636XXSP,2013-08-25 07:50:00,
2013-08-25 09:55:00,63.1,53.7,29.93,ESE,113,0.0,0.0,71,0.00,,,0.00,WUHU21636XXSP,2013-08-25 07:55:00,
2013-08-25 10:00:00,63.3,53.9,29.93,ESE,113,0.0,0.0,71,0.00,,,0.00,WUHU21636XXSP,2013-08-25 08:00:00,
2013-08-25 10:05:00,63.3,53.5,29.93,WNW,293,0.0,0.0,70,0.00,,,0.00,WUHU21636XXSP,2013-08-25 08:05:00,
2013-08-25 10:10:00,63.3,53.5,29.93,WNW,293,0.9,0.9,70,0.00,,,0.00,WUHU21636XXSP,2013-08-25 08:10:00,
2013-08-25 10:15:00,63.5,53.3,29.93,WNW,293,2.2,2.2,69,0.00,,,0.00,WUHU21636XXSP,2013-08-25 08:15:00,
2013-08-25 10:20:00,63.7,53.5,29.93,NW,315,0.0,2.2,69,0.00,,,0.00,WUHU21636XXSP,2013-08-25 08:20:00,
2013-08-25 10:25:00,63.7,53.5,29.93,WNW,293,1.3,2.2,69,0.00,,,0.00,WUHU21636XXSP,2013-08-25 08:25:00,
2013-08-25 10:30:00,63.7,53.5,29.93,WNW,293,0.0,1.3,69,0.00,,,0.00,WUHU21636XXSP,2013-08-25 08:30:00,
2013-08-25 10:35:00,63.9,53.7,29.93,WNW,293,0.0,1.3,69,0.00,,,0.00,WUHU21636XXSP,2013-08-25 08:35:00,
2013-08-25 10:40:00,64.0,53.4,29.93,WNW,293,0.7,0.7,68,0.00,,,0.00,WUHU21636XXSP,2013-08-25 08:40:00,
2013-08-25 10:45:00,64.2,53.2,29.93,WNW,293,0.9,0.9,67,0.00,,,0.00,WUHU21636XXSP,2013-08-25 08:45:00,
2013-08-25 10:50:00,64.2,53.2,29.93,WNW,293,0.0,0.9,67,0.00,,,0.00,WUHU21636XXSP,2013-08-25 08:50:00,
2013-08-25 10:55:00,64.6,54.0,29.93,WNW,293,0.0,0.9,68,0.00,,,0.00,WUHU21636XXSP,2013-08-25 08:55:00,
2013-08-25 11:00:00,64.8,53.7,29.93,WNW,293,0.9,0.9,67,0.00,,,0.00,WUHU21636XXSP,2013-08-25 09:00:00,
2013-08-25 11:05:00,64.8,53.3,29.93,WNW,293,0.0,0.9,66,0.00,,,0.00,WUHU21636XXSP,2013-08-25 09:05:00,
2013-08-25 11:10:00,64.8,52.9,29.93,ESE,113,0.0,0.9,65,0.00,,,0.00,WUHU21636XXSP,2013-08-25 09:10:00,
2013-08-25 11:15:00,64.8,53.3,29.93,WNW,293,1.8,1.8,66,0.00,,,0.00,WUHU21636XXSP,2013-08-25 09:15:00,
2013-08-25 11:20:00,64.8,53.3,29.93,West,270,0.0,1.8,66,0.00,,,0.00,WUHU21636XXSP,2013-08-25 09:20:00,
2013-08-25 11:25:00,64.8,52.9,29.92,WNW,293,0.9,1.8,65,0.00,,,0.00,WUHU21636XXSP,2013-08-25 09:25:00,
2013-08-25 11:30:00,64.9,53.4,29.92,WNW,293,0.0,0.9,66,0.00,,,0.00,WUHU21636XXSP,2013-08-25 09:30:00,
2013-08-25 11:35:00,65.1,53.6,29.92,WNW,293,0.0,0.9,66,0.00,,,0.00,WUHU21636XXSP,2013-08-25 09:35:00,
2013-08-25 11:47:00,63.7,54.1,29.92,WNW,292,0.0,3.1,72,0.00,,,0.00,WUHU21636XXSP,2013-08-25 09:47:00,
2013-08-25 11:50:00,63.5,54.4,29.92,WNW,293,0.4,3.1,72,0.00,,,0.00,WUHU21636XXSP,2013-08-25 09:50:00,
2013-08-25 11:55:00,63.5,55.5,29.92,WNW,293,0.0,0.7,75,0.00,,,0.00,WUHU21636XXSP,2013-08-25 09:55:00,
2013-08-25 12:00:00,63.7,55.0,29.93,WNW,293,0.0,0.4,73,0.00,,,0.00,WUHU21636XXSP,2013-08-25 10:00:00,
2013-08-25 12:05:00,63.3,55.0,29.92,WNW,293,0.0,0.0,74,0.00,,,0.00,WUHU21636XXSP,2013-08-25 10:05:00,
2013-08-25 12:10:00,63.3,54.9,29.92,WNW,292,0.0,0.0,74,0.00,BKN,,0.00,WeatherDisplay:10.37,2013-08-25 10:10:00,
2013-08-25 12:15:00,63.1,54.8,29.93,West,270,0.0,0.4,74,0.00,,,0.00,WUHU21636XXSP,2013-08-25 10:15:00,
2013-08-25 12:20:00,63.1,54.4,29.93,WNW,293,0.0,0.4,73,0.00,,,0.00,WUHU21636XXSP,2013-08-25 10:20:00,
2013-08-25 12:21:00,63.1,54.7,29.92,West,274,0.0,0.0,74,0.00,BKN,,0.00,WeatherDisplay:10.37,2013-08-25 10:21:00,
2013-08-25 12:25:00,63.1,55.2,29.92,WNW,293,0.0,0.0,75,0.00,,,0.00,WUHU21636XXSP,2013-08-25 10:25:00,
2013-08-25 12:30:00,63.1,55.2,29.93,WNW,293,0.0,0.0,75,0.00,,,0.00,WUHU21636XXSP,2013-08-25 10:30:00,
2013-08-25 12:31:00,63.1,55.1,29.92,WNW,285,0.0,0.0,75,0.00,BKN,,0.00,WeatherDisplay:10.37,2013-08-25 10:31:00,
2013-08-25 12:35:00,63.1,55.2,29.93,West,270,1.3,1.3,75,0.00,,,0.00,WUHU21636XXSP,2013-08-25 10:35:00,
2013-08-25 12:40:00,63.0,54.9,29.92,WNW,285,0.0,1.0,75,0.00,BKN,,0.00,WeatherDisplay:10.37,2013-08-25 10:40:00,
2013-08-25 12:45:00,63.1,55.9,29.92,WNW,293,0.0,1.3,77,0.00,,,0.00,WUHU21636XXSP,2013-08-25 10:45:00,
2013-08-25 12:50:00,63.1,54.7,29.92,WNW,292,0.0,0.0,74,0.00,CLR,,0.00,WeatherDisplay:10.37,2013-08-25 10:50:00,
2013-08-25 12:55:00,63.1,54.8,29.93,WNW,293,1.3,1.3,74,0.00,,,0.00,WUHU21636XXSP,2013-08-25 10:55:00,
2013-08-25 13:00:00,63.1,54.4,29.93,NW,315,0.0,1.3,73,0.00,,,0.00,WUHU21636XXSP,2013-08-25 11:00:00,
2013-08-25 13:05:00,63.5,55.2,29.93,NW,315,0.0,1.3,74,0.00,,,0.00,WUHU21636XXSP,2013-08-25 11:05:00,
2013-08-25 13:10:00,63.3,54.5,29.92,NW,312,1.0,1.0,73,0.00,CLR,,0.00,WeatherDisplay:10.37,2013-08-25 11:10:00,
2013-08-25 13:15:00,63.5,54.8,29.93,WNW,293,0.0,1.3,73,0.00,,,0.00,WUHU21636XXSP,2013-08-25 11:15:00,
2013-08-25 13:20:00,63.7,55.2,29.92,WNW,297,2.0,2.0,74,0.00,BKN,,0.00,WeatherDisplay:10.37,2013-08-25 11:20:00,
2013-08-25 13:25:00,63.7,55.0,29.93,WNW,293,1.3,1.8,73,0.00,,,0.00,WUHU21636XXSP,2013-08-25 11:25:00,
2013-08-25 13:30:00,63.7,54.9,29.92,NW,305,1.0,2.0,73,0.00,BKN,,0.00,WeatherDisplay:10.37,2013-08-25 11:30:00,
2013-08-25 13:35:00,63.7,55.0,29.93,WNW,293,2.7,2.7,73,0.00,,,0.00,WUHU21636XXSP,2013-08-25 11:35:00,
2013-08-25 13:40:00,63.7,55.0,29.93,WNW,293,0.7,2.7,73,0.00,,,0.00,WUHU21636XXSP,2013-08-25 11:40:00,
2013-08-25 13:41:00,63.7,54.9,29.93,WNW,292,1.0,3.0,73,0.00,BKN,,0.00,WeatherDisplay:10.37,2013-08-25 11:41:00,
2013-08-25 13:45:00,63.5,55.5,29.93,WNW,293,1.3,2.7,75,0.00,,,0.00,WUHU21636XXSP,2013-08-25 11:45:00,
2013-08-25 13:50:00,63.3,55.6,29.93,WNW,292,0.0,1.0,76,0.00,-RA,,0.00,WeatherDisplay:10.37,2013-08-25 11:50:00,
2013-08-25 13:55:00,63.3,55.7,29.94,WNW,293,1.1,1.3,76,0.00,,,0.00,WUHU21636XXSP,2013-08-25 11:55:00,
2013-08-25 14:00:00,63.3,55.6,29.93,WNW,292,1.0,1.0,76,0.00,-RA,,0.00,WeatherDisplay:10.37,2013-08-25 12:00:00,
2013-08-25 14:05:00,63.3,55.7,29.93,WNW,293,0.0,1.1,76,0.00,,,0.00,WUHU21636XXSP,2013-08-25 12:05:00,
2013-08-25 14:10:00,63.3,55.3,29.93,WNW,292,2.0,3.0,75,0.00,-RA,,0.00,WeatherDisplay:10.37,2013-08-25 12:10:00,
2013-08-25 14:15:00,63.3,55.4,29.94,WNW,293,0.0,2.7,75,0.00,,,0.00,WUHU21636XXSP,2013-08-25 12:15:00,
2013-08-25 14:20:00,63.3,55.3,29.93,WNW,292,0.0,3.0,75,0.00,-RA,,0.00,WeatherDisplay:10.37,2013-08-25 12:20:00,
2013-08-25 14:25:00,63.3,55.4,29.94,WNW,293,0.7,0.7,75,0.00,,,0.00,WUHU21636XXSP,2013-08-25 12:25:00,
2013-08-25 14:30:00,63.3,55.3,29.93,WNW,292,1.0,1.0,75,0.00,-RA,,0.00,WeatherDisplay:10.37,2013-08-25 12:30:00,
2013-08-25 14:35:00,62.8,55.9,29.94,SE,135,0.0,2.0,78,0.00,,,0.00,WUHU21636XXSP,2013-08-25 12:35:00,
2013-08-25 14:40:00,62.4,55.5,29.93,WNW,294,2.0,2.0,78,0.00,-RA,,0.00,WeatherDisplay:10.37,2013-08-25 12:40:00,
2013-08-25 14:45:00,62.2,55.7,29.94,WNW,293,2.2,2.2,79,0.00,,,0.00,WUHU21636XXSP,2013-08-25 12:45:00,
2013-08-25 14:50:00,62.2,55.6,29.93,WNW,292,2.0,2.0,79,0.00,-RA,,0.00,WeatherDisplay:10.37,2013-08-25 12:50:00,
2013-08-25 14:55:00,61.7,55.9,29.94,WNW,293,0.0,2.2,81,0.00,,,0.00,WUHU21636XXSP,2013-08-25 12:55:00,
2013-08-25 15:00:00,61.5,56.0,29.93,WNW,292,2.0,2.0,82,0.00,-RA,,0.00,WeatherDisplay:10.37,2013-08-25 13:00:00,
2013-08-25 15:05:00,61.2,55.7,29.94,WNW,293,0.0,2.5,82,0.00,,,0.00,WUHU21636XXSP,2013-08-25 13:05:00,
2013-08-25 15:10:00,60.4,55.9,29.93,WNW,292,2.0,2.0,85,0.00,-RA,,0.00,WeatherDisplay:10.37,2013-08-25 13:10:00,
2013-08-25 15:15:00,60.1,56.2,29.94,SSE,158,0.4,2.0,87,0.00,,,0.00,WUHU21636XXSP,2013-08-25 13:15:00,
2013-08-25 15:20:00,60.1,56.2,29.93,WNW,285,1.0,2.0,87,0.00,-RA,,0.00,WeatherDisplay:10.37,2013-08-25 13:20:00,
2013-08-25 15:25:00,60.1,56.2,29.94,WNW,293,0.0,1.1,87,0.00,,,0.00,WUHU21636XXSP,2013-08-25 13:25:00,
2013-08-25 15:30:00,60.1,56.5,29.94,WNW,293,0.0,1.1,88,0.00,,,0.00,WUHU21636XXSP,2013-08-25 13:30:00,
2013-08-25 15:35:00,59.9,56.0,29.94,WNW,293,0.0,0.0,87,0.00,,,0.00,WUHU21636XXSP,2013-08-25 13:35:00,
2013-08-25 15:40:00,59.9,56.0,29.93,WNW,292,0.0,1.0,87,0.00,-RA,,0.00,WeatherDisplay:10.37,2013-08-25 13:40:00,
2013-08-25 15:45:00,59.7,56.1,29.94,WNW,293,1.3,2.2,88,0.00,,,0.00,WUHU21636XXSP,2013-08-25 13:45:00,
2013-08-25 15:50:00,59.7,56.2,29.93,WNW,292,0.0,2.0,88,0.00,-RA,,0.00,WeatherDisplay:10.37,2013-08-25 13:50:00,
2013-08-25 15:55:00,59.7,56.4,29.94,WNW,293,0.0,1.3,89,0.00,,,0.00,WUHU21636XXSP,2013-08-25 13:55:00,
2013-08-25 16:00:00,59.7,56.8,29.94,WNW,292,1.0,1.0,90,0.00,-RA,,0.00,WeatherDisplay:10.37,2013-08-25 14:00:00,
2013-08-25 16:05:00,59.7,56.4,29.94,WNW,293,0.0,0.9,89,0.00,,,0.00,WUHU21636XXSP,2013-08-25 14:05:00,
2013-08-25 16:10:00,59.7,56.5,29.93,WNW,292,0.0,1.0,89,0.00,-RA,,0.00,WeatherDisplay:10.37,2013-08-25 14:10:00,
2013-08-25 16:15:00,60.1,56.8,29.94,NW,315,0.7,0.7,89,0.00,,,0.00,WUHU21636XXSP,2013-08-25 14:15:00,
2013-08-25 16:20:00,60.1,56.8,29.93,NW,312,1.0,1.0,89,0.00,-RA,,0.00,WeatherDisplay:10.37,2013-08-25 14:20:00,
2013-08-25 16:25:00,60.1,56.8,29.94,WNW,293,4.3,4.3,89,0.00,,,0.00,WUHU21636XXSP,2013-08-25 14:25:00,
2013-08-25 16:30:00,60.1,56.2,29.93,WNW,292,1.0,5.0,87,0.00,-RA,,0.00,WeatherDisplay:10.37,2013-08-25 14:30:00,
2013-08-25 16:35:00,60.1,56.5,29.94,WNW,293,0.0,4.3,88,0.00,,,0.00,WUHU21636XXSP,2013-08-25 14:35:00,
2013-08-25 16:40:00,60.1,56.5,29.93,WNW,292,0.0,2.0,88,0.00,-RA,,0.00,WeatherDisplay:10.37,2013-08-25 14:40:00,
2013-08-25 16:45:00,60.1,56.5,29.95,WNW,293,1.3,1.3,88,0.00,,,0.00,WUHU21636XXSP,2013-08-25 14:45:00,
2013-08-25 16:50:00,60.1,56.2,29.94,WNW,292,0.0,1.0,87,0.00,-RA,,0.00,WeatherDisplay:10.37,2013-08-25 14:50:00,
2013-08-25 16:55:00,60.1,56.8,29.95,WNW,293,0.0,1.3,89,0.00,,,0.00,WUHU21636XXSP,2013-08-25 14:55:00,
2013-08-25 17:00:00,60.3,57.0,29.94,WNW,292,0.0,0.0,89,0.00,-RA,,0.00,WeatherDisplay:10.37,2013-08-25 15:00:00,
2013-08-25 17:05:00,60.3,57.0,29.95,WNW,293,0.0,0.0,89,0.00,,,0.00,WUHU21636XXSP,2013-08-25 15:05:00,
2013-08-25 17:10:00,60.4,57.2,29.94,WNW,292,0.0,0.0,89,0.00,-RA,,0.00,WeatherDisplay:10.37,2013-08-25 15:10:00,
2013-08-25 17:15:00,60.4,57.1,29.95,WNW,293,0.9,0.9,89,0.00,,,0.00,WUHU21636XXSP,2013-08-25 15:15:00,
2013-08-25 17:20:00,60.4,57.5,29.94,WNW,292,0.0,1.0,90,0.00,-RA,,0.00,WeatherDisplay:10.37,2013-08-25 15:20:00,
2013-08-25 17:25:00,60.4,57.4,29.95,WNW,293,0.0,0.9,90,0.00,,,0.00,WUHU21636XXSP,2013-08-25 15:25:00,
2013-08-25 17:30:00,60.4,57.2,29.95,WNW,292,0.0,0.0,89,0.00,-RA,,0.00,WeatherDisplay:10.37,2013-08-25 15:30:00,
2013-08-25 17:35:00,60.4,57.1,29.95,WNW,293,0.0,0.0,89,0.00,,,0.00,WUHU21636XXSP,2013-08-25 15:35:00,
2013-08-25 17:40:00,60.4,57.2,29.95,WNW,292,1.0,1.0,89,0.00,-RA,,0.00,WeatherDisplay:10.37,2013-08-25 15:40:00,
2013-08-25 17:45:00,60.4,57.4,29.95,WNW,293,0.0,1.1,90,0.00,,,0.00,WUHU21636XXSP,2013-08-25 15:45:00,
2013-08-25 17:50:00,60.3,57.0,29.95,WNW,293,0.0,1.1,89,0.00,,,0.00,WUHU21636XXSP,2013-08-25 15:50:00,
2013-08-25 17:51:00,60.3,57.0,29.94,WNW,292,0.0,1.0,89,0.00,-RA,,0.00,WeatherDisplay:10.37,2013-08-25 15:51:00,
2013-08-25 17:55:00,60.1,56.8,29.95,WNW,293,0.0,0.0,89,0.00,,,0.00,WUHU21636XXSP,2013-08-25 15:55:00,
2013-08-25 18:00:00,60.1,57.1,29.94,WNW,292,1.0,1.0,90,0.00,-RA,,0.00,WeatherDisplay:10.37,2013-08-25 16:00:00,
2013-08-25 18:05:00,59.9,56.6,29.95,WNW,293,0.9,0.9,89,0.00,,,0.00,WUHU21636XXSP,2013-08-25 16:05:00,
2013-08-25 18:10:00,59.9,56.9,29.95,WNW,293,0.0,0.9,90,0.00,,,0.00,WUHU21636XXSP,2013-08-25 16:10:00,
2013-08-25 18:15:00,59.7,56.7,29.95,WNW,293,2.2,2.2,90,0.00,,,0.00,WUHU21636XXSP,2013-08-25 16:15:00,
2013-08-25 18:20:00,59.7,56.7,29.95,WNW,293,3.1,3.1,90,0.00,,,0.00,WUHU21636XXSP,2013-08-25 16:20:00,
2013-08-25 18:21:00,59.7,56.8,29.94,WNW,292,2.0,2.0,90,0.00,-RA,,0.00,WeatherDisplay:10.37,2013-08-25 16:21:00,
2013-08-25 18:25:00,59.7,56.7,29.95,WNW,293,2.5,3.1,90,0.00,,,0.00,WUHU21636XXSP,2013-08-25 16:25:00,
2013-08-25 18:30:00,59.7,56.8,29.95,WNW,292,0.0,3.0,90,0.00,-RA,,0.00,WeatherDisplay:10.37,2013-08-25 16:30:00,
2013-08-25 18:35:00,59.7,56.7,29.96,WNW,293,0.0,2.5,90,0.00,,,0.00,WUHU21636XXSP,2013-08-25 16:35:00,
2013-08-25 18:40:00,59.7,56.7,29.96,WNW,293,0.0,0.4,90,0.00,,,0.00,WUHU21636XXSP,2013-08-25 16:40:00,
2013-08-25 18:45:00,59.5,56.5,29.96,WNW,293,0.0,0.0,90,0.00,,,0.00,WUHU21636XXSP,2013-08-25 16:45:00,
2013-08-25 18:50:00,59.5,56.8,29.96,WNW,293,0.0,0.0,91,0.00,,,0.00,WUHU21636XXSP,2013-08-25 16:50:00,
2013-08-25 18:55:00,59.5,56.8,29.96,WNW,293,0.0,0.0,91,0.00,,,0.00,WUHU21636XXSP,2013-08-25 16:55:00,
2013-08-25 19:00:00,59.4,56.7,29.95,WNW,292,0.0,0.0,91,0.00,-RA,,0.00,WeatherDisplay:10.37,2013-08-25 17:00:00,
2013-08-25 19:05:00,59.4,56.7,29.96,WNW,293,0.0,0.0,91,0.00,,,0.00,WUHU21636XXSP,2013-08-25 17:05:00,
2013-08-25 19:10:00,59.2,56.6,29.95,WNW,292,0.0,0.0,91,0.00,-RA,,0.00,WeatherDisplay:10.37,2013-08-25 17:10:00,
2013-08-25 19:15:00,59.4,56.7,29.96,WNW,293,0.0,0.0,91,0.00,,,0.00,WUHU21636XXSP,2013-08-25 17:15:00,
2013-08-25 19:20:00,59.4,56.7,29.95,WNW,292,0.0,0.0,91,0.00,BKN,,0.00,WeatherDisplay:10.37,2013-08-25 17:20:00,
2013-08-25 19:25:00,59.4,57.0,29.96,WNW,293,0.0,0.0,92,0.00,,,0.00,WUHU21636XXSP,2013-08-25 17:25:00,
2013-08-25 19:30:00,59.4,57.0,29.95,WNW,292,0.0,0.0,92,0.00,BKN,,0.00,WeatherDisplay:10.37,2013-08-25 17:30:00,
2013-08-25 19:35:00,59.4,57.0,29.96,WNW,293,0.0,0.0,92,0.00,,,0.00,WUHU21636XXSP,2013-08-25 17:35:00,
2013-08-25 19:40:00,59.4,57.0,29.96,WNW,293,0.0,0.0,92,0.00,,,0.00,WUHU21636XXSP,2013-08-25 17:40:00,
2013-08-25 19:41:00,59.4,57.0,29.95,WNW,292,0.0,0.0,92,0.00,BKN,,0.00,WeatherDisplay:10.37,2013-08-25 17:41:00,
2013-08-25 19:45:00,59.4,57.0,29.96,WNW,293,0.0,0.0,92,0.00,,,0.00,WUHU21636XXSP,2013-08-25 17:45:00,
2013-08-25 19:50:00,59.4,57.0,29.95,WNW,292,0.0,0.0,92,0.02,-RA,,0.02,WeatherDisplay:10.37,2013-08-25 17:50:00,
2013-08-25 19:55:00,59.2,56.8,29.96,WNW,293,0.0,0.0,92,0.02,,,0.02,WUHU21636XXSP,2013-08-25 17:55:00,
2013-08-25 20:00:00,59.2,56.8,29.96,WNW,293,0.0,0.0,92,0.02,,,0.02,WUHU21636XXSP,2013-08-25 18:00:00,
2013-08-25 20:01:00,59.2,56.9,29.95,WNW,292,0.0,0.0,92,0.00,-RA,,0.02,WeatherDisplay:10.37,2013-08-25 18:01:00,
2013-08-25 20:05:00,59.2,57.1,29.96,WNW,293,0.0,0.0,93,0.02,,,0.02,WUHU21636XXSP,2013-08-25 18:05:00,
2013-08-25 20:10:00,59.2,57.2,29.95,WNW,292,0.0,0.0,93,0.02,-RA,,0.04,WeatherDisplay:10.37,2013-08-25 18:10:00,
2013-08-25 20:15:00,59.0,56.9,29.96,WNW,293,0.0,0.0,93,0.04,,,0.04,WUHU21636XXSP,2013-08-25 18:15:00,
2013-08-25 20:20:00,59.0,57.0,29.95,WNW,292,0.0,0.0,93,0.00,-RA,,0.04,WeatherDisplay:10.37,2013-08-25 18:20:00,
2013-08-25 20:25:00,59.0,56.9,29.97,WNW,293,0.0,0.0,93,0.04,,,0.04,WUHU21636XXSP,2013-08-25 18:25:00,
2013-08-25 20:30:00,59.0,57.0,29.96,WNW,292,0.0,0.0,93,0.00,-RA,,0.04,WeatherDisplay:10.37,2013-08-25 18:30:00,
2013-08-25 20:35:00,58.8,56.7,29.97,WNW,293,0.0,0.0,93,0.04,,,0.04,WUHU21636XXSP,2013-08-25 18:35:00,
2013-08-25 20:40:00,58.8,56.7,29.97,NW,315,0.0,0.0,93,0.04,,,0.04,WUHU21636XXSP,2013-08-25 18:40:00,
2013-08-25 20:45:00,58.8,56.7,29.97,NW,315,0.0,0.0,93,0.02,,,0.04,WUHU21636XXSP,2013-08-25 18:45:00,
2013-08-25 20:50:00,58.8,56.8,29.96,NW,310,0.0,0.0,93,0.00,SCT,,0.04,WeatherDisplay:10.37,2013-08-25 18:50:00,
2013-08-25 20:55:00,58.6,56.5,29.97,NW,315,0.0,0.0,93,0.02,,,0.04,WUHU21636XXSP,2013-08-25 18:55:00,
2013-08-25 21:00:00,58.6,56.6,29.95,NW,315,0.0,0.0,93,0.00,SCT,,0.04,WeatherDisplay:10.37,2013-08-25 19:00:00,
2013-08-25 21:05:00,58.6,56.5,29.97,NW,315,0.0,0.0,93,0.00,,,0.04,WUHU21636XXSP,2013-08-25 19:05:00,
2013-08-25 21:10:00,58.6,56.6,29.96,NW,315,0.0,0.0,93,0.02,RA,,0.06,WeatherDisplay:10.37,2013-08-25 19:10:00,
2013-08-25 21:15:00,58.6,56.5,29.97,NW,315,0.0,0.0,93,0.02,,,0.06,WUHU21636XXSP,2013-08-25 19:15:00,
2013-08-25 21:20:00,58.6,56.5,29.97,WNW,293,0.0,0.0,93,0.02,,,0.06,WUHU21636XXSP,2013-08-25 19:20:00,
2013-08-25 21:25:00,58.6,56.5,29.97,WNW,293,0.0,0.0,93,0.02,,,0.06,WUHU21636XXSP,2013-08-25 19:25:00,
2013-08-25 21:30:00,58.6,56.6,29.96,WNW,297,0.0,0.0,93,0.00,-RA,,0.06,WeatherDisplay:10.37,2013-08-25 19:30:00,
2013-08-25 21:35:00,58.6,56.5,29.97,WNW,293,0.0,0.0,93,0.02,,,0.06,WUHU21636XXSP,2013-08-25 19:35:00,
2013-08-25 21:40:00,58.5,56.4,29.96,WNW,293,0.0,0.0,93,0.02,,,0.06,WUHU21636XXSP,2013-08-25 19:40:00,
2013-08-25 21:45:00,58.6,56.5,29.97,WNW,293,0.0,0.0,93,0.02,,,0.06,WUHU21636XXSP,2013-08-25 19:45:00,
2013-08-25 21:50:00,58.6,56.5,29.97,WNW,293,0.0,0.0,93,0.02,,,0.06,WUHU21636XXSP,2013-08-25 19:50:00,
2013-08-25 21:55:00,58.5,56.4,29.97,WNW,293,0.0,0.0,93,0.02,,,0.06,WUHU21636XXSP,2013-08-25 19:55:00,
2013-08-25 22:00:00,58.5,56.4,29.97,WNW,293,0.0,0.0,93,0.02,,,0.06,WUHU21636XXSP,2013-08-25 20:00:00,
2013-08-25 22:05:00,58.5,56.4,29.97,WNW,293,0.0,0.0,93,0.02,,,0.06,WUHU21636XXSP,2013-08-25 20:05:00,
2013-08-25 22:10:00,58.5,56.4,29.97,WNW,293,0.0,0.0,93,0.00,,,0.06,WUHU21636XXSP,2013-08-25 20:10:00,
2013-08-25 22:15:00,58.5,56.4,29.97,WNW,293,0.0,0.0,93,0.00,,,0.06,WUHU21636XXSP,2013-08-25 20:15:00,
2013-08-25 22:20:00,58.5,56.4,29.97,WNW,293,0.0,0.0,93,0.02,,,0.08,WUHU21636XXSP,2013-08-25 20:20:00,
2013-08-25 22:25:00,58.3,56.2,29.97,WNW,293,0.0,0.0,93,0.02,,,0.08,WUHU21636XXSP,2013-08-25 20:25:00,
2013-08-25 22:30:00,58.3,56.2,29.97,WNW,293,0.0,0.0,93,0.02,,,0.08,WUHU21636XXSP,2013-08-25 20:30:00,
2013-08-25 22:35:00,58.5,56.4,29.97,WNW,293,0.0,0.0,93,0.02,,,0.08,WUHU21636XXSP,2013-08-25 20:35:00,
2013-08-25 22:40:00,58.3,56.2,29.97,WNW,293,0.0,0.0,93,0.02,,,0.08,WUHU21636XXSP,2013-08-25 20:40:00,
2013-08-25 22:45:00,58.3,56.2,29.97,WNW,293,0.0,0.0,93,0.02,,,0.08,WUHU21636XXSP,2013-08-25 20:45:00,
2013-08-25 22:50:00,58.3,56.2,29.97,WNW,293,0.0,0.0,93,0.02,,,0.08,WUHU21636XXSP,2013-08-25 20:50:00,
2013-08-25 22:55:00,58.5,56.4,29.97,WNW,293,0.0,0.0,93,0.04,,,0.10,WUHU21636XXSP,2013-08-25 20:55:00,
2013-08-25 23:00:00,58.3,56.2,29.97,WNW,293,0.0,0.0,93,0.04,,,0.10,WUHU21636XXSP,2013-08-25 21:00:00,
2013-08-25 23:05:00,58.3,56.2,29.97,WNW,293,0.0,0.0,93,0.04,,,0.10,WUHU21636XXSP,2013-08-25 21:05:00,
2013-08-25 23:10:00,58.3,56.2,29.97,WNW,293,0.0,0.0,93,0.04,,,0.10,WUHU21636XXSP,2013-08-25 21:10:00,
2013-08-25 23:15:00,58.3,56.2,29.97,WNW,293,0.0,0.0,93,0.02,,,0.10,WUHU21636XXSP,2013-08-25 21:15:00,
2013-08-25 23:20:00,58.3,56.2,29.97,WNW,293,0.0,0.0,93,0.02,,,0.10,WUHU21636XXSP,2013-08-25 21:20:00,
2013-08-25 23:25:00,58.3,56.2,29.97,WNW,293,0.0,0.0,93,0.02,,,0.10,WUHU21636XXSP,2013-08-25 21:25:00,
2013-08-25 23:30:00,58.3,56.2,29.97,WNW,293,0.0,0.0,93,0.02,,,0.10,WUHU21636XXSP,2013-08-25 21:30:00,
2013-08-25 23:35:00,58.3,56.2,29.97,WNW,293,0.0,0.0,93,0.04,,,0.12,WUHU21636XXSP,2013-08-25 21:35:00,
2013-08-25 23:40:00,58.3,56.2,29.97,WNW,293,0.0,0.0,93,0.04,,,0.12,WUHU21636XXSP,2013-08-25 21:40:00,
2013-08-25 23:45:00,58.3,56.5,29.97,WNW,293,0.0,0.0,94,0.04,,,0.12,WUHU21636XXSP,2013-08-25 21:45:00,
2013-08-25 23:50:00,58.3,56.5,29.97,WNW,293,0.0,0.0,94,0.02,,,0.12,WUHU21636XXSP,2013-08-25 21:50:00,
2013-08-25 23:55:00,58.3,56.5,29.97,WNW,293,0.0,0.0,94,0.02,,,0.12,WUHU21636XXSP,2013-08-25 21:55:00,